This is the latest recevied weather packets stored in our database for station/object LY3PGO-4. If no packets are shown the sender has not sent any weather packets the latest 1 day(s).
| Time | Temp. | Humidity | Pressure | Rain* | Wind** | Luminosity | Snow |
|---|---|---|---|---|---|---|---|
| 1778077230 | 15.56° C | 62% | 1006.8 hPa | 0 mm | - | - | - |
| 1778076624 | 16.11° C | 61% | 1006.9 hPa | 0 mm | - | - | - |
| 1778074806 | 17.22° C | 57% | 1006.6 hPa | 0 mm | - | - | - |
| 1778074201 | 17.78° C | 54% | 1006.6 hPa | 0 mm | - | - | - |
| 1778072991 | 17.78° C | 53% | 1007.2 hPa | 0 mm | - | - | - |
| 1778072381 | 17.78° C | 50% | 1007.3 hPa | 0 mm | - | - | - |
| 1778071775 | 17.22° C | 53% | 1007.4 hPa | 0 mm | - | - | - |
| 1778069959 | 16.11° C | 51% | 1007.7 hPa | 0 mm | - | - | - |
| 1778067531 | 16.11° C | 51% | 1007.9 hPa | 0 mm | - | - | - |
| 1778066929 | 16.67° C | 49% | 1008.4 hPa | 0 mm | - | - | - |
| 1778066319 | 16.11° C | 49% | 1008.2 hPa | 0 mm | - | - | - |
| 1778065107 | 16.11° C | 49% | 1008.5 hPa | 0 mm | - | - | - |
| 1778064500 | 16.67° C | 49% | 1008.6 hPa | 0 mm | - | - | - |
| 1778062682 | 15.56° C | 49% | 1008.9 hPa | 0 mm | - | - | - |
| 1778061470 | 15° C | 51% | 1009.2 hPa | 0 mm | - | - | - |
| 1778060866 | 15.56° C | 52% | 1009.3 hPa | 0 mm | - | - | - |
| 1778060258 | 15.56° C | 51% | 1009.4 hPa | 0 mm | - | - | - |
| 1778059045 | 14.44° C | 53% | 1009.4 hPa | 0 mm | - | - | - |
| 1778058438 | 14.44° C | 54% | 1009.4 hPa | 0 mm | - | - | - |
| 1778056013 | 13.89° C | 48% | 1009.6 hPa | 0 mm | - | - | - |
| 1778055407 | 13.89° C | 49% | 1009.6 hPa | 0 mm | - | - | - |
| 1778054804 | 13.33° C | 49% | 1009.6 hPa | 0 mm | - | - | - |
| 1778053589 | 12.78° C | 53% | 1009.9 hPa | 0 mm | - | - | - |
| 1778051773 | 11.67° C | 55% | 1010.1 hPa | 0 mm | - | - | - |
| 1778050557 | 10.56° C | 59% | 1010.4 hPa | 0 mm | - | - | - |
* Rain latest hour (hover to see other rain measurements)
** Current wind speed in m/s (hover to see current wind gust speed)